Fes-Sais, Morocco

9:34 PM WET on December 16, 2017 (GMT +0000)
Fes-Sais

Weather History for GMFF - February, 2014

Change the Weather History Date:

Sunday, February 23, 2014

  Actual Average Record
Temperature  
Mean Temperature 52 °F -  
Max Temperature 71 °F 65 °F 71 °F (2009)
Min Temperature 34 °F 41 °F 30 °F (2005)
Degree Days  
Heating Degree Days 12    
Growing Degree Days 2 (Base 50)    
Moisture  
Dew Point 42 °F    
Average Humidity 68    
Maximum Humidity 94    
Minimum Humidity 23    
Precipitation  
Precipitation 0.00 in 0.13 in - ()
Sea Level Pressure  
Sea Level Pressure 30.06 in    
Wind  
Wind Speed 4 mph ()    
Max Wind Speed 8 mph    
Max Gust Speed -    
Visibility 6.0 miles    
Events      
Averages and records for this station are not official NWS values.
T = Trace of Precipitation, MM = Missing Value Source: Averaged Metar Reports

Daily Weather History Graph

Daily Weather History Graph

Search for Another Location

Airport or City:

Trip Planner

Search our weather history database for the weather conditions in past years. The results will help you decide how hot, cold, wet, or windy it might be!

Date:

Astronomy

Feb. 23, 2014 Rise Set
Actual Time 6:55 AM WET 6:11 PM WET
Civil Twilight 6:30 AM WET 6:36 PM WET
Nautical Twilight 6:01 AM WET 7:05 PM WET
Astronomical Twilight 5:32 AM WET 7:34 PM WET
Moon 1:31 AM WET (2/23) 12:08 PM WET (2/23)
Length of Visible Light 12h 05m
Length of Day
11h 15m
Last Quarter, 41% of the Moon is Illuminated
Feb 23
Last Quarter
Mar 1
New
Mar 8
First Quarter
Mar 16
Full
Mar 24
Last Quarter

Hourly Weather History & Observations

Time (WET) Temp. Windchill Dew Point Humidity Pressure Visibility Wind Dir Wind Speed Gust Speed Precip Events Conditions
12:00 AM 43 °F - 37 °F 74% 30.16 in 6 mi ESE 5.8 mph - -  
12:00 AM 41.0 °F 39.0 °F 37.4 °F 87% 30.09 in - SE 3.5 mph - N/A   Clear
1:00 AM - - - N/A% 0.00 in - North - - N/A   Clear
2:00 AM 37.4 °F 34.9 °F 33.8 °F 87% 30.04 in - South 3.5 mph - N/A   Clear
3:00 AM 35 °F - 32 °F 86% 30.10 in 6 mi South 4.6 mph - -  
3:00 AM 33.8 °F 29.6 °F 32.0 °F 93% 30.04 in - South 4.6 mph - N/A   Clear
4:00 AM 37.4 °F 33.8 °F 33.8 °F 87% 30.01 in - South 4.6 mph - N/A   Clear
5:00 AM 35.6 °F 31.7 °F 33.8 °F 93% 30.01 in - SSE 4.6 mph - N/A   Clear
6:00 AM 36 °F - 32 °F 79% 30.09 in 6 mi SE 2.3 mph - -  
6:00 AM 35.6 °F 32.8 °F 32.0 °F 87% 30.01 in - SE 3.5 mph - N/A   Clear
7:00 AM 35.6 °F 32.8 °F 32.0 °F 87% 30.01 in - South 3.5 mph - N/A   Clear
8:00 AM 41.0 °F 38.0 °F 35.6 °F 81% 30.04 in - SE 4.6 mph - N/A   Clear
9:00 AM 54 °F - 38 °F 43% 30.09 in 25 mi ENE 3.5 mph - -   Scattered Clouds
9:00 AM 55.4 °F - 39.2 °F 54% 30.06 in - ENE 3.5 mph - N/A   Clear
10:00 AM 60.8 °F - 42.8 °F 52% 30.06 in - NE 5.8 mph - N/A   Clear
11:00 AM 64.4 °F - 44.6 °F 49% 30.06 in - NE 4.6 mph - N/A   Clear
12:00 PM 65 °F - 44 °F 35% 30.04 in 22 mi NNE 5.8 mph - -   Clear
12:00 PM 64.4 °F - 42.8 °F 45% 30.06 in - NE 5.8 mph - N/A   Clear
1:00 PM 69.8 °F - 39.2 °F 33% 30.04 in - North 4.6 mph - N/A   Clear
2:00 PM 69.8 °F - 41.0 °F 35% 30.01 in - North 6.9 mph - N/A   Clear
3:00 PM 70 °F - 41 °F 23% 29.96 in 19 mi North 6.9 mph - -   Scattered Clouds
3:00 PM 69.8 °F - 44.6 °F 40% 30.01 in 6.2 mi North 6.9 mph - N/A   Partly Cloudy
4:00 PM 69.8 °F - 46.4 °F 43% 30.01 in 6.2 mi North 4.6 mph - N/A   Partly Cloudy
5:00 PM 68.0 °F - 44.6 °F 43% 30.01 in 6.2 mi NNE 5.8 mph - N/A   Partly Cloudy
6:00 PM 63 °F - 46 °F 43% 30.01 in 28 mi NNE 5.8 mph - -   Scattered Clouds
6:00 PM 62.6 °F - 46.4 °F 55% 30.04 in 6.2 mi NNE 4.6 mph - N/A   Partly Cloudy
7:00 PM 57.2 °F - 46.4 °F 67% 30.06 in 6.2 mi WNW 8.1 mph - N/A   Partly Cloudy
8:00 PM 53.6 °F - 50.0 °F 88% 30.09 in 5.0 mi WNW 5.8 mph - N/A   Partly Cloudy
8:20 PM 53.6 °F - 51.8 °F 94% 30.09 in 5.0 mi SW 4.6 mph - N/A   Mostly Cloudy
9:00 PM 54 °F - 52 °F 92% 30.13 in 4 mi WSW 8.1 mph - -   Mostly Cloudy
9:00 PM 53.6 °F - 51.8 °F 94% 30.12 in 3.7 mi WSW 8.1 mph - N/A   Mostly Cloudy
10:00 PM 53.6 °F - 51.8 °F 94% 30.12 in 3.7 mi South 3.5 mph - N/A   Mostly Cloudy
10:45 PM 53.6 °F - 51.8 °F 94% 30.12 in 3.7 mi Calm Calm - N/A   Scattered Clouds
11:00 PM 51.8 °F - 50.0 °F 94% 30.09 in 3.7 mi Calm Calm - N/A   Scattered Clouds